Location: Unspecified
(0.0000°N, 0.0000°E)
Time: 09:01:39
(UTC+00:00)

deb Midas III - Pass Details

Date: 14 March 2026
Orbit: 3314 x 3545 km, 91.1° (Epoch: 19 April)

Event Time Altitude Azimuth Distance (km) Brightness Sun altitude
Rises 02:50:55 0° 188° (S) 7,610 ? -49.5°
Reaches altitude 10° 02:55:27 10° 193° (SSW) 6,574 ? -48.4°
Enters shadow 03:02:17 28° 206° (SSW) 5,184 ? -46.7°
Exits shadow 03:28:10 13° 331° (NNW) 6,180 ? -40.2°
Drops below altitude 10° 03:29:18 10° 333° (NNW) 6,424 ? -40.0°
Sets 03:33:50 0° 339° (NNW) 7,426 ? -38.8°
